Погода в Амберге

Германия     49°26′32″N   11°51′20″E
темп.,
°C
ветер,
м/с
пор.,
м/с
влажн.,
%
обл.,
%
осадки,
мм/ч
давл.,
гПа
погр.,
м
10 августа, ср
ср1023:00+15в22614 0.0 102613
02:00+13св11673 0.0 102612
05:00+12св22715 0.0 102615
08:00+16всв27585 0.0 1026224
11:00+23в57355 0.0 10251928
14:00+25в462926 0.0 10242369
17:00+26в56285 0.0 10222503
20:00+20в274514 0.0 1022150
11 августа, чт
чт1123:00+16в225521 0.0 102317
02:00+13св11635 0.0 102312
05:00+12св11735 0.0 102311
08:00+16всв275952 0.0 1023230
11:00+23в573533 0.0 10221496
14:00+25в4627100 0.0 10212019
17:00+26всв4624100 0.0 10202225
20:00+20в2544100 0.0 102093
12 августа, пт
пт1223:00+16вюв11535 0.0 102011
02:00+14св11590 0.0 102110
05:00+13ссв11630 0.0 102010
08:00+17св23530 0.0 1020137
11:00+23в46340 0.0 10191992
14:00+25в46285 0.0 10172511
17:00+25в662925 0.0 10172599
20:00+20в374829 0.0 1018207
13 августа, сб
сб1323:00+14в11702 0.0 101912
02:00+13св11800 0.0 101912
05:00+11св11887 0.0 101912
08:00+16св24684 0.0 1019193
11:00+24в34382 0.0 10181442
14:00+27в34288 0.0 10172322
17:00+28всв24265 0.0 10172659
20:00+21в11435 0.0 101711
14 августа, вс
вс1423:00+17всв115125 0.0 101811
02:00+16св11531 0.0 101811
05:00+15с11570 0.0 101811
08:00+18св11540 0.0 101789
11:00+26всв23451 0.0 10161302
14:00+29в343267 0.0 10142782
17:00+28всв443452 0.0 10131821
20:00+23в115692 0.0 101314